Temp
63 64 64 64 65 65 64 65 67 68 68 65 65 64 63 63 63 62 61 61 60 61 61 61 61 63 62 62 63 61 59 60 54 53 57 51 54 51 51 52 52 49 48
60 60 62 63 64 64 64 63 62 61 66 66 64 63 64 63 63 61 61 60 59 59 59 59 60 60 59 60 57 58 56 57 53 47 50 46 50 50 50 48 48 49 48
59 58 58 60 61 61 61 61 61 60 60 61 64 63 62 63 62 62 61 61 59 59 59 59 59 59 58 58 56 55 54 52 51 48 46 48 49 47 46 47 46 46 47
58 58 56 55 58 59 59 58 57 57 56 58 60 62 62 62 62 61 61 60 60 59 59 59 59 59 58 57 55 55 52 50 49 48 46 45 46 45 45 43 41 43 43
55 55 55 56 56 58 56 53 53 54 53 53 54 57 62 61 61 61 60 60 59 58 58 58 58 57 54 56 55 53 51 49 48 46 42 43 42 41 41 43 42 41 41
55 55 56 56 57 56 54 53 52 50 51 51 50 52 54 59 52 49 56 59 58 57 56 56 57 51 50 47 46 48 50 49 47 45 42 41 42 43 43 42 41 37 32
55 57 57 56 56 55 55 53 51 49 49 48 49 50 51 54 48 46 47 59 57 57 56 55 54 54 48 51 42 42 43 43 46 49 43 41 37 38 39 40 39 37 36
55 56 56 55 55 55 54 52 50 50 48 47 47 48 49 49 44 45 43 54 55 54 55 54 52 50 50 49 47 46 45 43 41 43 47 41 39 39 40 40 37 37 33
55 56 57 54 53 54 51 50 50 48 45 44 43 43 44 44 40 41 42 48 47 45 47 48 50 47 43 45 46 44 43 41 41 41 40 39 39 40 41 37 33 33 31
56 56 57 54 53 52 49 46 46 45 41 38 35 36 38 40 39 39 42 41 39 37 39 43 42 46 39 40 47 43 38 35 37 36 36 38 38 38 38 39 35 35 32
57 56 56 54 51 50 45 42 39 37 35 34 34 34 34 35 38 39 40 38 38 36 36 35 35 38 38 39 41 41 39 35 35 35 35 35 36 36 37 38 38 37 33
59 56 54 51 50 46 40 36 35 34 34 33 33 33 34 34 36 38 39 38 37 36 34 34 35 37 38 37 36 35 35 36 36 34 34 33 33 34 34 34 35 35 35
56 53 49 47 41 39 37 35 35 34 34 34 33 33 33 33 34 36 37 36 35 34 34 35 36 37 36 34 35 35 35 35 34 34 33 33 33 33 32 32 32 32 33
54 52 47 39 36 36 36 36 36 35 35 34 34 33 33 33 33 34 35 35 35 35 34 35 34 33 34 34 34 34 34 34 34 33 33 32 32 32 32 33 32 32 32
47 49 48 41 39 36 36 36 36 36 37 36 35 35 33 33 33 35 35 34 34 34 34 34 34 33 33 33 33 33 33 34 33 33 32 32 32 32 32 33 33 32 31
42 44 45 39 38 35 34 33 34 34 35 35 35 34 33 34 35 36 36 35 35 35 35 34 33 33 32 32 32 32 33 33 33 33 33 32 32 32 31 32 32 32 30
38 41 44 38 37 34 34 33 31 33 34 34 35 35 35 35 35 36 36 36 36 36 34 34 33 33 33 32 32 32 32 33 33 33 33 32 32 32 31 31 31 31 31
36 37 40 38 37 35 34 33 33 33 32 32 34 34 34 35 35 36 36 36 34 35 34 34 33 33 33 32 32 32 32 33 33 33 33 32 32 31 31 30 31 31 31
33 35 36 36 35 34 34 33 33 32 32 32 32 32 34 34 35 35 36 35 33 33 33 33 33 33 33 33 33 33 33 33 33 33 32 33 33 32 31 32 32 32 32
34 34 34 33 33 33 33 32 32 32 32 32 32 31 32 34 33 33 33 33 33 33 34 34 34 35 35 34 34 33 33 33 32 32 32 33 33 33 32 32 32 32 32
32 33 33 33 33 32 32 32 32 32 32 32 31 32 34 33 33 33 33 34 34 34 34 35 34 34 34 34 34 33 33 33 32 32 33 33 33 32 33 33 33 32 32
33 33 33 32 32 32 32 32 32 32 32 31 31 32 34 33 33 33 33 33 33 34 34 33 32 32 32 33 32 32 32 32 32 32 32 32 32 31 31 30 31 31 31
34 34 34 34 34 33 33 34 33 33 32 32 32 32 33 33 33 33 33 32 32 32 33 33 33 31 32 33 33 33 32 32 32 33 32 32 31 30 30 29 29 29 29
35 35 35 34 34 34 34 34 34 34 34 33 33 33 33 33 33 32 33 33 33 33 33 33 33 32 32 32 32 32 32 32 32 32 32 32 30 30 30 28 29 29 29
35 34 34 34 34 33 33 33 33 33 33 33 32 32 32 32 32 32 33 33 33 32 32 32 32 32 33 32 31 31 32 32 32 32 32 31 30 30 29 28 29 27 27
35 34 34 33 33 33 33 32 32 33 32 32 32 32 32 33 32 32 32 32 32 31 32 32 32 32 32 32 32 32 32 32 33 33 32 31 31 30 30 29 29 29 28
MSLP
1000.98 1000.60 1000.48 1000.35 1000.48 1000.61 1000.90 1000.63 1000.47 1000.81 1001.37 1002.21 1002.82 1003.43 1004.19 1004.85 1005.66 1006.27 1007.02 1007.72 1008.27 1008.81 1009.26 1009.71 1010.19 1010.66 1011.06 1011.72 1012.10 1012.51 1013.51 1013.86 1014.64 1015.75 1016.37 1017.12 1018.13 1018.41 1019.77 1019.97 1021.39 1022.63 1023.13
1001.83 1002.04 1001.57 1001.22 1001.00 1000.67 1000.65 1000.72 1000.91 1001.17 1000.65 1000.88 1001.60 1002.31 1003.01 1003.68 1004.37 1005.13 1005.81 1006.46 1007.09 1007.66 1008.20 1008.75 1009.18 1009.94 1010.36 1010.86 1011.45 1011.88 1012.54 1013.04 1013.98 1015.06 1016.02 1017.07 1017.24 1018.67 1018.81 1018.58 1019.44 1021.79 1022.23
1002.02 1001.93 1002.12 1001.82 1001.62 1001.37 1001.29 1001.28 1001.40 1001.38 1001.20 1001.01 1000.67 1001.17 1001.79 1002.57 1003.29 1003.83 1004.52 1005.13 1005.78 1006.31 1006.97 1007.53 1008.02 1008.66 1009.09 1009.73 1010.44 1011.10 1011.88 1012.80 1013.56 1014.92 1016.04 1016.95 1017.62 1018.77 1019.73 1020.23 1020.95 1021.47 1021.79
1002.37 1002.01 1001.92 1001.98 1001.88 1001.49 1001.56 1001.66 1001.62 1001.71 1001.57 1001.04 1000.96 1000.53 1000.62 1001.17 1001.99 1002.71 1003.44 1003.96 1004.57 1005.15 1005.66 1006.15 1006.75 1007.26 1007.82 1008.56 1009.30 1010.03 1011.08 1011.95 1012.81 1013.83 1015.10 1016.34 1017.51 1018.94 1019.86 1020.73 1021.89 1021.75 1022.17
1002.71 1002.60 1002.19 1001.89 1001.72 1001.57 1001.45 1001.58 1001.67 1001.63 1001.75 1001.51 1001.17 1000.72 1000.50 1000.57 1001.01 1001.54 1002.21 1002.83 1003.53 1004.08 1004.53 1005.04 1005.56 1005.95 1006.71 1007.36 1008.15 1009.08 1010.16 1011.18 1012.39 1013.71 1015.04 1016.22 1016.23 1017.89 1018.00 1019.39 1020.68 1021.26 1021.41
1002.58 1002.25 1001.96 1001.90 1001.56 1001.32 1001.20 1001.30 1001.58 1001.73 1001.91 1001.41 1001.22 1000.89 1000.38 1000.39 1000.32 1000.66 1001.24 1001.86 1002.47 1002.89 1003.36 1003.94 1004.42 1005.18 1005.85 1006.48 1006.98 1007.77 1008.56 1009.88 1011.10 1012.45 1013.71 1014.36 1015.12 1015.21 1016.55 1017.94 1019.40 1020.84 1021.88
1002.42 1001.98 1001.53 1001.15 1001.16 1000.83 1000.94 1001.09 1001.00 1001.21 1001.51 1001.83 1001.43 1000.79 1000.48 1000.18 1000.21 1000.61 1000.64 1000.84 1001.48 1001.77 1002.29 1002.91 1003.64 1004.22 1005.18 1005.92 1006.89 1007.70 1008.48 1009.00 1009.27 1010.11 1011.50 1012.85 1014.27 1014.78 1016.01 1017.94 1018.85 1019.56 1019.87
1001.57 1001.75 1001.15 1001.27 1001.13 1000.52 1000.90 1000.54 1000.79 1001.22 1001.26 1001.55 1001.50 1001.01 1000.72 1000.53 1000.38 1000.38 1000.32 1000.90 1001.07 1001.29 1001.68 1002.23 1002.82 1003.69 1004.35 1005.22 1006.25 1007.22 1008.04 1008.73 1009.21 1009.74 1010.38 1011.88 1012.88 1014.05 1014.82 1016.02 1017.76 1019.72 1020.65
1000.97 1001.13 1000.70 1000.69 1000.58 1000.66 1000.05 1000.66 1000.42 1001.22 1001.17 1001.11 1001.03 1000.83 1000.95 1000.61 1000.43 1000.26 1000.45 1001.00 1001.06 1001.37 1001.67 1001.95 1002.42 1003.21 1003.87 1004.87 1005.78 1006.70 1007.72 1008.62 1009.37 1009.70 1010.03 1011.42 1012.73 1013.72 1014.79 1016.86 1018.32 1019.39 1020.32
1000.28 1000.26 1000.04 1000.27 1000.16 1000.20 1000.05 1000.32 1000.97 1001.14 1001.62 1001.56 1001.01 1001.29 1001.11 1000.86 1000.58 1000.44 1000.41 1000.67 1001.11 1001.82 1001.94 1002.27 1002.32 1002.66 1003.54 1004.11 1004.99 1006.10 1007.37 1008.23 1009.03 1010.69 1010.58 1011.50 1012.86 1013.82 1014.68 1015.71 1017.12 1018.11 1019.45
999.01 999.07 999.24 999.28 999.63 999.52 999.72 1000.15 1000.82 1001.08 1001.15 1001.83 1001.11 1001.23 1001.31 1001.32 1001.04 1000.45 1000.03 1000.49 1001.00 1001.63 1002.45 1002.65 1003.05 1003.14 1003.46 1004.15 1004.66 1005.89 1006.67 1008.03 1009.14 1010.22 1011.19 1011.89 1013.01 1013.93 1014.88 1015.94 1016.63 1017.05 1018.19
998.06 998.02 998.16 998.79 998.84 999.18 999.60 1000.07 1000.25 1000.85 1000.60 1001.25 1001.24 1000.91 1001.19 1001.26 1001.09 1000.91 1000.22 1000.10 1000.96 1001.63 1002.46 1003.15 1003.33 1003.49 1004.09 1005.00 1005.35 1005.97 1007.28 1008.49 1009.60 1010.16 1010.58 1012.32 1012.97 1013.83 1014.95 1015.74 1016.62 1017.37 1018.08
997.24 997.18 997.40 997.85 998.54 998.86 999.56 1000.06 1000.02 1000.66 1000.91 1001.08 1001.20 1001.17 1001.26 1001.14 1001.23 1001.56 1001.29 1000.94 1001.35 1001.86 1002.50 1002.77 1003.61 1004.20 1004.89 1005.48 1005.97 1006.56 1007.82 1008.70 1009.99 1010.87 1010.78 1011.72 1012.91 1013.87 1014.88 1015.81 1016.90 1017.75 1018.44
996.85 996.70 996.82 997.54 998.26 998.72 999.20 999.95 999.83 1000.47 1000.61 1000.62 1000.92 1001.49 1001.21 1001.36 1001.42 1001.63 1002.00 1001.97 1001.43 1002.49 1002.98 1003.31 1004.38 1005.10 1005.97 1006.45 1006.85 1007.32 1008.15 1009.34 1009.89 1010.85 1011.53 1011.57 1012.89 1014.05 1014.77 1015.42 1016.57 1017.60 1018.44
997.28 996.85 996.28 996.74 997.43 998.19 998.84 999.33 999.74 999.81 999.83 1000.06 1000.36 1000.79 1001.07 1001.00 1000.97 1001.42 1002.01 1002.01 1002.27 1002.69 1003.47 1004.27 1004.69 1005.41 1006.55 1007.19 1007.57 1008.31 1009.14 1009.57 1010.64 1011.41 1011.71 1011.94 1012.91 1014.05 1014.73 1015.41 1016.22 1016.93 1017.80
996.89 996.48 996.24 996.20 996.84 997.75 998.61 999.46 999.94 999.63 999.56 999.78 1000.10 1000.32 1000.63 1000.84 1001.20 1001.34 1001.88 1001.96 1002.53 1003.41 1003.91 1004.37 1005.65 1005.66 1006.55 1007.42 1008.21 1009.29 1009.84 1009.99 1010.92 1011.85 1011.77 1012.32 1013.45 1013.95 1014.40 1015.39 1016.10 1016.68 1017.34
995.87 995.51 995.42 995.69 996.40 997.18 998.10 999.15 999.63 999.80 999.42 999.91 1000.19 1000.36 1000.65 1001.03 1001.41 1001.86 1002.38 1002.68 1003.19 1003.76 1004.56 1005.70 1005.95 1005.68 1006.84 1007.86 1008.72 1009.68 1010.12 1010.20 1011.10 1011.66 1011.88 1012.29 1013.37 1014.24 1014.67 1015.27 1016.21 1016.60 1017.25
994.53 994.51 994.55 994.72 995.60 996.71 997.62 998.56 999.04 999.09 999.41 1000.40 1000.44 1000.57 1001.19 1001.62 1001.97 1002.34 1002.49 1003.05 1004.44 1004.84 1005.12 1005.70 1006.22 1006.28 1007.45 1008.33 1009.04 1009.56 1010.02 1010.73 1011.29 1011.81 1012.12 1012.42 1013.15 1013.82 1014.65 1015.26 1015.75 1016.32 1016.85
992.27 992.89 993.51 994.12 995.10 996.06 997.10 997.92 998.73 998.65 998.97 1000.16 1000.81 1001.41 1001.87 1002.19 1002.31 1002.68 1002.67 1003.44 1004.89 1005.66 1005.91 1006.29 1006.25 1006.57 1007.86 1008.64 1009.20 1009.72 1010.34 1011.04 1011.49 1011.93 1012.20 1012.56 1013.09 1013.74 1014.33 1014.87 1015.43 1015.89 1016.46
991.71 992.30 993.20 994.15 995.23 996.10 996.77 997.50 998.09 998.68 999.34 1000.14 1000.92 1001.55 1002.14 1002.41 1002.62 1002.63 1003.58 1004.52 1005.34 1005.70 1005.96 1006.23 1006.61 1007.31 1007.87 1008.48 1009.20 1009.74 1010.44 1011.02 1011.45 1011.94 1012.37 1012.64 1012.99 1013.45 1013.99 1014.36 1014.89 1015.57 1016.07
993.69 993.80 994.15 994.83 995.52 996.19 996.85 997.35 998.10 998.57 999.30 1000.31 1001.21 1001.87 1002.26 1002.39 1002.98 1003.57 1004.26 1004.85 1005.36 1005.69 1006.13 1006.68 1007.10 1007.47 1007.95 1008.61 1009.11 1009.69 1010.30 1010.83 1011.33 1011.70 1012.13 1012.54 1013.02 1013.40 1013.74 1014.06 1014.66 1015.27 1015.78
995.17 995.26 995.37 995.72 996.25 996.81 997.54 998.22 998.90 999.44 999.99 1000.51 1001.56 1002.32 1002.72 1003.09 1003.68 1004.07 1004.69 1005.40 1005.67 1005.98 1006.33 1007.00 1007.55 1007.79 1008.16 1008.73 1009.28 1009.76 1010.26 1010.77 1011.22 1011.55 1011.98 1012.50 1013.09 1013.54 1013.95 1014.40 1014.74 1015.06 1015.49
996.41 996.36 996.51 996.83 997.25 997.68 998.18 998.78 999.34 999.96 1000.66 1001.47 1002.39 1003.02 1003.45 1003.87 1004.27 1004.60 1005.29 1005.90 1006.25 1006.55 1006.94 1007.44 1007.86 1008.31 1008.68 1008.99 1009.36 1009.90 1010.35 1010.95 1011.32 1011.65 1012.21 1012.75 1013.31 1013.65 1014.03 1014.53 1014.77 1015.00 1015.35
997.72 997.59 997.53 997.77 998.05 998.47 999.11 999.79 1000.40 1001.12 1001.83 1002.59 1003.12 1003.40 1003.84 1004.24 1004.58 1005.02 1005.67 1006.19 1006.78 1007.08 1007.33 1007.69 1008.08 1008.34 1008.75 1009.19 1009.57 1010.00 1010.43 1010.91 1011.34 1011.83 1012.27 1012.80 1013.28 1013.65 1013.94 1014.40 1014.74 1015.13 1015.42
998.86 998.86 999.06 999.34 999.70 1000.10 1000.52 1001.01 1001.53 1002.12 1002.69 1003.13 1003.51 1003.86 1004.36 1004.78 1005.00 1005.57 1006.22 1006.78 1007.24 1007.44 1007.74 1007.91 1008.22 1008.62 1009.02 1009.42 1009.86 1010.25 1010.68 1011.27 1011.66 1011.95 1012.39 1012.89 1013.32 1013.68 1013.91 1014.31 1014.76 1015.05 1015.30
1000.23 1000.29 1000.42 1000.63 1000.94 1001.26 1001.53 1001.97 1002.48 1002.81 1003.22 1003.69 1004.15 1004.58 1004.87 1005.24 1005.74 1006.29 1006.76 1007.03 1007.38 1007.69 1007.87 1008.12 1008.39 1008.76 1009.26 1009.74 1010.14 1010.49 1010.85 1011.18 1011.50 1011.75 1012.21 1012.81 1013.29 1013.72 1014.19 1014.36 1014.53 1014.83 1015.12
Wind_Speed
12 11 11 11 5 5 5 4 11 14 16 17 19 20 19 19 18 18 18 18 19 18 17 18 18 18 13 10 10 8 12 11 9 8 11 7 14 15 16 16 15 14 13
6 10 10 8 10 7 5 5 5 8 9 16 19 21 21 20 20 20 20 18 20 21 20 19 21 13 17 15 9 13 10 11 7 13 9 6 14 13 15 18 17 13 15
5 4 8 8 5 6 6 6 6 6 5 6 15 20 20 20 20 21 21 20 20 21 21 21 20 20 19 16 13 11 9 7 6 8 9 7 9 10 12 10 10 13 11
7 4 4 7 10 6 4 4 4 5 6 5 6 14 18 20 20 20 20 20 19 19 20 21 21 21 21 19 14 16 11 11 9 8 10 11 8 6 7 10 8 8 10
7 8 6 6 5 6 5 3 4 5 6 7 6 4 13 16 14 19 19 20 19 18 20 20 20 22 24 22 14 16 15 13 10 7 8 7 8 10 17 12 11 8 8
6 6 6 7 5 7 4 4 3 4 6 6 5 5 5 8 16 21 19 17 18 19 18 18 18 19 19 20 20 21 20 19 16 11 11 15 20 16 14 14 12 12 7
9 10 7 5 7 8 6 4 4 4 4 6 7 5 5 6 9 14 19 17 16 17 18 16 14 11 15 15 11 14 14 17 23 21 20 17 13 15 15 14 13 15 10
7 11 5 5 8 5 7 5 4 4 4 5 6 5 6 5 6 11 12 15 9 10 11 12 13 12 13 13 13 15 15 16 15 11 15 13 10 12 17 17 14 11 6
7 9 8 7 7 7 6 4 2 3 4 4 5 7 6 6 5 8 8 7 7 6 6 8 10 11 12 16 13 15 13 8 9 11 12 15 14 17 15 11 10 11 6
8 10 8 7 7 7 5 3 2 3 4 3 2 4 6 6 6 7 7 4 6 4 4 5 11 12 16 20 15 13 12 9 13 9 10 14 15 15 20 16 14 13 8
10 10 10 5 7 6 4 3 2 3 4 3 3 1 2 2 5 8 10 5 5 5 3 3 2 12 14 15 12 10 11 12 11 11 9 9 10 11 10 9 13 13 11
10 10 9 7 4 1 4 3 3 3 2 1 1 2 1 2 2 4 7 8 9 7 6 3 5 12 13 13 8 18 19 13 9 9 10 8 9 9 8 8 8 5 3
13 11 7 7 5 5 4 3 2 3 3 3 2 1 1 2 3 6 9 12 10 6 5 9 12 13 16 11 20 21 13 8 8 9 9 8 8 9 9 10 7 9 7
15 14 7 6 6 6 4 5 5 5 5 5 5 5 3 2 3 4 5 8 16 11 14 11 11 11 11 10 11 8 6 6 7 7 7 8 8 9 8 8 9 8 7
17 15 9 7 7 5 4 5 6 4 6 7 6 5 6 6 4 6 7 7 8 10 12 7 7 7 8 7 6 6 5 7 6 5 6 7 8 8 7 7 6 8 6
17 13 8 6 6 6 6 3 2 8 11 10 9 6 4 9 13 15 17 19 18 10 6 8 7 8 8 7 7 6 5 6 6 5 7 8 8 8 8 7 7 7 8
17 14 10 8 8 8 8 7 7 5 15 15 15 14 12 15 17 19 19 17 14 10 8 6 7 8 8 7 7 5 4 5 7 6 7 8 7 6 9 8 7 7 7
18 18 11 9 10 10 10 9 8 9 10 7 12 14 16 17 18 19 18 14 7 6 7 7 7 8 7 6 6 6 5 5 5 6 6 7 7 8 8 8 8 8 8
15 11 9 9 9 11 10 9 7 8 9 10 9 10 12 16 15 13 12 8 7 6 6 6 6 8 7 6 6 6 6 5 5 6 6 7 7 7 7 7 7 10 9
5 12 12 10 10 10 9 9 9 9 10 9 8 8 8 8 6 7 7 7 6 5 6 6 6 6 6 6 6 6 6 6 5 5 5 5 6 6 6 7 7 8 7
7 8 13 9 9 9 9 9 8 8 9 9 8 7 8 7 7 7 7 6 5 5 5 5 5 4 5 6 6 6 6 5 4 4 5 5 5 5 4 5 5 6 6
7 7 8 9 8 9 8 8 8 8 9 10 8 7 9 6 6 6 7 5 4 4 4 5 4 4 4 4 5 4 5 5 4 3 3 4 4 2 3 3 4 4 5
8 8 8 8 8 10 8 9 9 8 9 9 7 5 6 6 6 6 7 4 3 4 4 5 4 4 3 4 4 4 4 4 3 4 4 4 4 3 3 2 2 2 3
8 9 9 9 8 9 8 9 9 10 9 8 6 6 6 6 7 7 6 5 4 4 4 4 4 5 4 4 3 3 4 3 3 3 5 4 4 4 3 2 3 3 3
9 10 10 9 8 8 8 9 9 8 7 6 6 6 6 6 7 6 5 4 4 4 4 3 3 5 6 6 5 5 5 6 5 6 4 4 5 5 3 3 3 3 2
8 8 7 7 7 7 8 8 7 7 7 6 6 6 5 5 5 5 4 4 3 2 3 2 3 4 7 6 7 8 8 7 6 8 5 5 6 5 4 4 6 4 5
Wind_Direction
357 353 356 354 20 349 330 296 235 207 197 192 195 194 197 197 197 199 199 201 203 208 210 214 214 216 218 218 217 200 200 207 198 195 194 181 186 165 170 167 167 175 177
0 345 339 343 335 327 330 357 350 6 239 199 195 195 200 200 199 203 204 201 204 208 209 208 213 206 214 214 210 212 199 202 191 173 180 190 185 179 171 167 162 183 178
357 350 331 330 320 325 346 351 343 338 315 304 204 197 198 202 203 204 206 205 205 207 208 210 210 210 211 209 204 202 194 182 178 164 178 177 181 163 164 170 173 175 180
326 319 332 316 314 296 293 301 327 334 309 306 322 222 203 198 202 205 208 208 208 210 211 212 213 212 212 209 202 204 190 185 181 183 176 168 173 152 172 169 182 178 165
323 317 307 286 304 293 266 297 297 314 305 292 281 302 223 203 208 206 206 209 212 210 211 213 215 213 211 209 202 199 189 193 187 171 157 165 171 170 185 185 187 178 168
268 276 288 292 288 309 276 284 272 295 303 293 284 269 256 234 214 199 204 209 213 213 214 214 214 214 212 208 203 198 188 188 188 175 176 188 195 192 181 185 179 171 171
312 294 276 308 304 301 277 257 294 299 310 301 284 266 261 262 237 218 214 210 213 215 214 213 211 211 206 206 187 181 191 201 195 185 188 194 183 187 175 182 188 190 177
275 287 291 280 274 266 292 270 274 265 270 292 297 299 282 254 250 240 201 227 229 225 219 209 196 194 194 191 187 192 193 199 199 197 202 187 181 170 177 186 174 162 92
249 269 280 266 275 263 254 272 282 283 282 264 295 309 289 278 259 225 173 216 208 193 181 182 184 176 177 176 178 187 193 198 184 155 133 135 139 161 158 138 157 160 140
245 258 258 253 255 250 239 198 239 202 255 256 268 292 289 277 255 222 179 149 140 151 145 211 186 184 173 173 183 177 171 167 149 140 130 134 145 156 158 171 165 171 143
240 249 261 246 268 244 179 156 188 193 164 213 164 214 281 264 257 198 157 147 154 129 137 116 118 149 158 169 157 169 166 146 140 134 122 129 143 155 163 172 181 169 164
253 242 245 233 259 183 128 150 150 177 147 198 112 57 13 17 48 171 137 121 136 133 142 133 125 141 135 127 108 117 127 129 135 134 133 146 150 156 158 148 151 138 117
281 260 227 208 162 154 155 213 136 172 192 197 184 133 67 30 57 108 115 114 112 105 120 114 116 116 104 96 121 125 126 127 139 145 148 145 156 146 131 125 124 126 116
265 265 225 173 166 156 164 183 195 195 196 181 173 176 148 134 121 118 108 100 96 97 106 98 99 93 91 105 113 105 107 133 144 143 149 126 128 144 150 146 149 148 131
287 290 234 179 180 157 161 177 194 200 199 185 180 168 167 159 155 143 142 124 117 115 114 112 108 102 106 103 89 83 108 121 125 129 137 130 139 148 143 144 142 146 140
271 267 264 167 159 150 143 104 74 151 126 120 114 128 81 110 126 118 113 110 111 114 93 107 111 109 103 102 105 109 109 111 120 135 131 133 148 151 145 148 153 164 152
261 258 243 177 168 157 151 153 136 82 104 110 113 115 124 126 116 115 112 105 106 103 103 116 121 107 113 114 116 125 128 116 128 137 138 137 143 143 150 155 162 164 163
249 244 244 178 166 164 161 166 156 149 130 120 102 113 115 118 119 120 114 102 81 76 110 122 117 108 108 115 119 122 115 124 130 137 141 143 148 153 157 166 168 170 169
229 212 186 157 155 156 155 151 152 136 127 127 120 106 116 113 105 99 84 98 115 112 110 114 115 112 123 124 120 120 128 135 139 142 144 149 153 159 164 168 171 173 170
100 138 135 133 136 138 134 130 127 128 125 124 124 127 131 124 113 94 93 103 113 117 118 115 113 124 133 136 139 136 136 141 141 144 150 150 153 160 167 167 171 176 185
68 88 108 110 116 113 114 114 117 120 118 116 115 119 124 119 115 112 111 107 116 116 118 123 125 114 108 121 131 131 137 131 138 135 149 151 160 158 156 167 167 171 178
63 78 87 92 93 97 98 100 104 105 106 105 101 108 106 104 108 108 98 86 85 92 91 100 104 100 104 112 120 127 136 139 136 128 125 123 139 130 134 138 167 165 166
47 66 79 87 94 98 97 98 98 96 100 104 109 116 117 118 116 106 105 104 90 92 95 102 103 97 102 108 112 125 123 142 139 131 138 147 151 147 132 137 141 132 152
53 57 65 70 76 78 81 92 100 106 117 118 110 100 105 104 103 104 100 87 87 88 96 110 114 117 102 98 97 103 108 104 114 147 140 147 149 151 144 140 161 179 171
51 56 59 61 70 83 89 88 92 104 107 103 99 93 89 98 97 100 106 108 116 108 109 107 104 134 144 142 134 125 133 156 149 140 130 142 145 155 151 153 166 162 145
59 59 61 65 68 77 86 96 100 103 103 103 106 111 113 113 116 127 134 127 124 123 120 109 125 150 155 168 172 165 163 169 164 164 154 156 166 167 181 185 191 177 175